Location: Newark
(13.8117°N, 3.6025°W)
Time: 15:31:55
(UTC+00:00)

Vanguard 2 - Pass Details

Date: 02 September 2019
Orbit: 554 x 2937 km, 32.9° (Epoch: 18 September)

Event Time Altitude Azimuth Distance (km) Brightness Sun altitude
Rises 19:03:30 0° 268° (W) 5,114 13.6 -10.0°
Reaches altitude 10° 19:07:45 10° 252° (WSW) 4,507 12.5 -11.0°
Maximum altitude 19:16:47 21° 209° (SSW) 4,287 11.5 -13.1°
Drops below altitude 10° 19:28:02 10° 167° (SSE) 5,663 11.7 -15.8°
Sets 19:34:36 0° 153° (SSE) 6,782 12.0 -17.4°
